Content
SEND FEEDBACK

Daily
Averages
Monthly
Summary
United States of America

WARSAW, MINNESOTA


Home > North America > United States > Minnesota
Elevation: 940 feet     Latitude: 44 17N     Longitude: 093 16W

WEATHER
 
SELECT A DAY
Number of Records: 451,217;   Date Range: 1/1/95 - 7/29/14
 
SHARE

PRINT THIS DATA

[ ← Previous Day ]
WEATHER ALMANAC - FEBRUARY 13, 2013
[ Next Day → ]
[ °C ]   °F
Weather ElementAverageHighLow
Temperature28.1 °F37.4 °F (2:14 pm)15.8 °F (4:34 am)
Dewpoint25.7 °F33.8 °F (4:54 pm)15.8 °F (3:34 am)
Humidity90.9 %100 % (12:34 am)75 % (11:54 am)
Barometer29.68 in29.80 in (12:34 am)29.55 in (9:54 pm)
Wind Speed5.1 mph12.7 mph (10:34 pm)
Weather ElementAverage
Visibility9.9 mi
Wind DirectionS (185.4 °)

Weather ElementTotal
Precipitation0.10 in
Heating Degree Days38.4 (Base 65)
Averaged from 71 records on February 13, 2013
WEATHER CONDITIONS BREAKOUT
WIND DIRECTION BREAKOUT
WEATHER BY HOUR - FEBRUARY 13, 2013
[ °C ]   °F
Local TimeTemperatureDewpointHumidityBarometerVisibilityWind DirectionWind SpeedGust SpeedPrecipitationEventsConditions
12:34 AM19.4 °F19.4 °F100 %29.80 in10.0 miSSW (200°)3.5 mphClear
12:54 AM19.4 °F19.4 °F100 %29.80 in10.0 miSouth (190°)3.5 mphClear
1:14 AM19.4 °F17.6 °F93 %29.80 in10.0 miSW (230°)4.6 mphScattered Clouds
1:34 AM19.4 °F17.6 °F93 %29.80 in10.0 miSSW (200°)3.5 mphScattered Clouds
1:54 AM19.4 °F17.6 °F93 %29.79 in10.0 miSSW (200°)3.5 mphScattered Clouds
2:13 AM17.6 °F17.6 °F100 %29.79 in10.0 miSSW (210°)3.5 mphScattered Clouds
2:34 AM19.4 °F17.6 °F93 %29.79 in10.0 miSouth (190°)3.5 mphScattered Clouds
2:54 AM17.6 °F17.6 °F100 %29.78 in10.0 miSSW (210°)3.5 mphClear
3:14 AM17.6 °F17.6 °F100 %29.78 in10.0 miSW (220°)4.6 mphScattered Clouds
3:34 AM17.6 °F15.8 °F93 %29.78 in10.0 miSW (220°)6.9 mphScattered Clouds
3:54 AM17.6 °F17.6 °F100 %29.77 in10.0 miSouth (190°)3.5 mphClear
4:14 AM17.6 °F15.8 °F93 %29.77 in10.0 miSouth (180°)3.5 mphClear
4:34 AM15.8 °F15.8 °F100 %29.77 in10.0 miSSW (200°)4.6 mphClear
4:54 AM17.6 °F15.8 °F93 %29.77 in10.0 miSouth (190°)3.5 mphClear
5:14 AM15.8 °F15.8 °F100 %29.77 in10.0 miCalmClear
5:34 AM15.8 °F15.8 °F100 %29.77 in10.0 miSouth (180°)3.5 mphScattered Clouds
5:54 AM15.8 °F15.8 °F100 %29.76 in10.0 miSSW (200°)3.5 mphOvercast
6:14 AM17.6 °F17.6 °F100 %29.75 in10.0 miSouth (190°)3.5 mphOvercast
6:34 AM17.6 °F15.8 °F93 %29.75 in10.0 miCalmMostly Cloudy
6:54 AM17.6 °F17.6 °F100 %29.74 in10.0 miSouth (180°)3.5 mphOvercast
7:14 AM17.6 °F17.6 °F100 %29.74 in10.0 miSouth (180°)4.6 mphOvercast
7:34 AM19.4 °F17.6 °F93 %29.74 in10.0 miSSW (200°)4.6 mphOvercast
7:53 AM19.4 °F17.6 °F93 %29.74 in10.0 miCalmOvercast
8:14 AM19.4 °F19.4 °F100 %29.74 in10.0 miSSW (210°)4.6 mphOvercast
8:34 AM21.2 °F19.4 °F93 %29.74 in10.0 miSSW (200°)4.6 mphOvercast
8:54 AM21.2 °F19.4 °F93 %29.74 in10.0 miSSW (200°)4.6 mphOvercast
9:14 AM21.2 °F19.4 °F93 %29.73 in10.0 miSSW (200°)6.9 mphOvercast
9:34 AM24.8 °F21.2 °F86 %29.73 in10.0 miSSW (200°)5.8 mphOvercast
9:54 AM24.8 °F21.2 °F86 %29.73 in10.0 miSSW (200°)5.8 mphMostly Cloudy
10:14 AM26.6 °F23.0 °F86 %29.72 in10.0 miSSW (200°)5.8 mphScattered Clouds
10:34 AM28.4 °F24.8 °F86 %29.72 in10.0 miSouth (190°)5.8 mphScattered Clouds
10:54 AM30.2 °F24.8 °F80 %29.72 in10.0 miSSW (200°)4.6 mphOvercast
11:14 AM30.2 °F24.8 °F80 %29.72 in10.0 miSouth (190°)3.5 mph0.01 inOvercast
11:34 AM30.2 °F26.6 °F86 %29.72 in10.0 miSouth (180°)4.6 mph0.01 inOvercast
11:54 AM33.8 °F26.6 °F75 %29.71 in10.0 miSouth (190°)4.6 mph0.02 inOvercast
12:14 PM33.8 °F26.6 °F75 %29.70 in10.0 miSouth (190°)6.9 mphOvercast
12:34 PM33.8 °F26.6 °F75 %29.69 in10.0 miSouth (190°)6.9 mph0.01 inOvercast
12:54 PM35.6 °F28.4 °F75 %29.68 in10.0 miSouth (180°)6.9 mph0.01 inOvercast
1:14 PM35.6 °F28.4 °F75 %29.68 in10.0 miSouth (180°)8.1 mphMostly Cloudy
1:34 PM35.6 °F28.4 °F75 %29.67 in10.0 miSouth (190°)8.1 mphMostly Cloudy
1:54 PM35.6 °F28.4 °F75 %29.66 in10.0 miSouth (190°)8.1 mphOvercast
2:14 PM37.4 °F30.2 °F75 %29.65 in10.0 miSouth (190°)6.9 mphOvercast
2:34 PM37.4 °F30.2 °F75 %29.65 in10.0 miSSW (210°)8.1 mphOvercast
2:54 PM37.4 °F30.2 °F75 %29.65 in10.0 miSouth (180°)6.9 mphOvercast
3:14 PM37.4 °F30.2 °F75 %29.65 in10.0 miSSW (200°)5.8 mphOvercast
3:34 PM37.4 °F30.2 °F75 %29.64 in10.0 miSouth (190°)6.9 mphOvercast
3:54 PM37.4 °F32.0 °F81 %29.64 in10.0 miSSW (200°)4.6 mphOvercast
4:14 PM37.4 °F32.0 °F81 %29.64 in10.0 miSSE (160°)4.6 mphMostly Cloudy
4:34 PM35.6 °F32.0 °F87 %29.64 in10.0 miSouth (170°)5.8 mphScattered Clouds
4:54 PM35.6 °F33.8 °F93 %29.63 in10.0 miSSE (160°)5.8 mphMostly Cloudy
5:13 PM35.6 °F33.8 °F93 %29.62 in10.0 miSSE (160°)5.8 mphOvercast
5:34 PM35.6 °F33.8 °F93 %29.61 in10.0 miSSE (160°)4.6 mphOvercast
5:54 PM35.6 °F33.8 °F93 %29.61 in10.0 miSouth (170°)4.6 mphOvercast
6:13 PM35.6 °F33.8 °F93 %29.61 in10.0 miSouth (170°)4.6 mphOvercast
6:34 PM35.6 °F33.8 °F93 %29.60 in10.0 miSouth (180°)3.5 mphOvercast
6:54 PM35.6 °F33.8 °F93 %29.60 in10.0 miSSW (200°)4.6 mphLight Drizzle
7:14 PM35.6 °F33.8 °F93 %29.59 in10.0 miSSE (160°)3.5 mphLight Drizzle
7:34 PM35.6 °F33.8 °F93 %29.58 in10.0 miSouth (170°)3.5 mphDrizzle
7:54 PM35.6 °F33.8 °F93 %29.58 in10.0 miCalmLight Drizzle
8:14 PM35.6 °F33.8 °F93 %29.57 in10.0 miCalm0.01 inDrizzle
8:34 PM35.6 °F33.8 °F93 %29.57 in7.0 miWSW (240°)9.2 mph0.01 inRainLight Rain
8:53 PM35.6 °F33.8 °F93 %29.57 in7.0 miSW (230°)6.9 mph0.02 inRainRain
9:14 PM33.8 °F33.8 °F100 %29.56 in7.0 miSW (230°)3.5 mphRainLight Rain
9:34 PM33.8 °F33.8 °F100 %29.56 in10.0 miSW (220°)3.5 mphOvercast
9:54 PM33.8 °F33.8 °F100 %29.55 in10.0 miSW (220°)3.5 mphOvercast
10:14 PM33.8 °F33.8 °F100 %29.55 in10.0 miWSW (240°)8.1 mphOvercast
10:34 PM33.8 °F33.8 °F100 %29.55 in10.0 miWest (260°)12.7 mphOvercast
10:54 PM33.8 °F33.8 °F100 %29.55 in10.0 miWest (270°)10.4 mphOvercast
11:14 PM33.8 °F33.8 °F100 %29.56 in10.0 miWest (260°)10.4 mphOvercast
11:34 PM33.8 °F33.8 °F100 %29.56 in10.0 miWest (260°)9.2 mphOvercast
11:53 PM33.8 °F33.8 °F100 %29.56 in10.0 miWest (260°)9.2 mphOvercast
Hourly data recorded from KFBL, located miles away from Warsaw, Minnesota







STORIES FROM OUR PARTNERS